sat.trackr.live / text

‹ back to catalog

CONNECTA IOT-16

NORAD 67390 · 2026-004AD

PAYLOAD ACTIVE UNKNOWN

§ Identity

Operator
Country
TURK
Launch date
2026-01-11
Launch site
AFWTR
Launch vehicle
Mass (kg)
RCS (m²)

External: N2YO · Heavens-Above · Gunter

§ Orbital elements

Epoch: 2026-05-24T23:23:37.931712Z

Period
94.88 min
Inclination
97.4585°
Eccentricity
0.0005660
Mean motion
15.17731164 rev/d
Perigee alt
508.8 km
Apogee alt
516.6 km
Semi-major
6,890.8 km
B*
1.2376e-4
RAAN
144.2622°
Arg perigee
72.8360°
Mean anomaly
287.3493°
Rev number
2,022

§ Raw data

CONNECTA IOT-161 67390U 26004AD  26144.97474458  .00002430  00000+0  12376-3 0  99922 67390  97.4585 144.2622 0005660  72.8360 287.3493 15.17731164 20227

JSON: /api/v1/satellites/67390 · /tle

For live sub-satellite position, see the globe view (requires WebGL).

§ Visibility from observer

Set your observer location to see the next 7 days of passes ≥ 10°. The values pass through the URL so the page stays shareable.

No JS? Fill the form by hand. The geolocation button needs JavaScript.